Temperature
14 14 14 15 15 15 15 15 16 18 18 15 15 14 15 15 16 16 16 17 17 17 17 17 17 17 16 16 16 16 16 16 15 15 15 15 15 15
13 13 13 14 14 14 15 15 15 16 17 16 15 14 14 14 15 15 16 16 16 16 16 16 16 16 16 16 16 15 15 15 15 15 15 15 15 15
12 12 13 13 13 14 14 14 14 15 15 16 15 14 14 14 14 15 15 15 16 16 16 16 16 16 16 16 15 15 15 15 15 15 14 14 14 14
11 11 11 12 12 13 13 13 14 14 14 15 14 14 14 14 14 14 14 14 15 15 15 16 16 16 15 15 15 15 15 15 14 14 14 14 14 14
10 11 11 11 11 12 12 13 13 13 13 14 14 14 13 13 13 13 13 13 13 13 14 14 15 15 15 15 14 14 14 14 14 14 13 13 13 14
10 10 10 10 10 11 11 12 12 13 13 13 14 14 13 13 13 12 12 12 12 12 13 13 13 14 14 14 14 13 13 13 13 13 13 13 13 13
10 10 10 10 10 10 10 11 11 12 13 13 13 13 13 13 12 12 12 12 12 12 12 12 12 12 12 12 13 12 12 12 12 12 12 12 12 12
10 10 10 10 10 10 10 10 10 11 12 12 13 13 13 13 12 12 12 11 11 11 11 11 11 11 11 12 12 12 12 12 12 12 12 12 12 12
9 9 10 10 9 10 10 10 10 10 11 11 12 13 13 13 12 12 12 12 11 11 11 11 10 10 11 11 11 11 11 12 12 11 12 12 12 12
9 9 9 10 9 9 9 10 10 10 11 11 12 12 13 13 13 13 12 11 11 11 10 10 9 10 10 11 10 11 11 11 11 11 11 11 11 11
9 9 9 9 9 9 9 9 10 10 10 11 11 12 12 12 12 12 11 11 10 10 10 10 9 9 9 9 9 9 9 9 10 10 10 10 10 11
8 9 9 9 9 9 9 9 10 10 10 10 11 11 12 12 12 12 12 11 11 9 9 9 9 9 7 7 8 8 8 8 8 8 9 9 9 8
9 9 9 9 9 9 9 9 9 10 10 10 11 11 12 12 11 11 11 11 12 11 10 10 9 9 9 7 7 7 7 7 7 7 7 8 8 7
8 9 9 9 9 9 9 9 9 9 9 10 10 11 11 11 11 11 11 11 11 12 12 11 10 10 9 8 7 7 7 7 7 7 7 7 7 7
8 8 8 8 8 9 9 9 9 9 9 10 10 11 11 11 11 11 11 11 10 10 11 10 10 10 10 10 9 7 7 7 7 7 6 7 7 7
7 7 8 8 8 8 9 9 9 9 9 10 10 11 11 11 10 10 10 10 9 9 9 9 9 10 10 10 9 8 8 8 7 7 7 7 7 7
7 7 8 8 8 8 9 9 9 9 9 10 10 10 11 10 10 10 10 10 9 8 8 8 8 9 10 10 9 9 9 8 8 8 7 8 8 8
7 7 8 8 8 9 9 9 9 9 9 9 10 10 10 10 10 10 9 9 9 8 8 8 9 9 9 9 10 9 9 9 8 8 8 8 9 8
7 7 8 8 8 9 9 9 9 9 9 9 10 10 10 10 10 9 9 9 9 9 9 9 9 10 10 10 9 10 10 9 9 8 8 9 10 9
7 7 8 8 8 8 8 8 8 8 9 9 9 10 10 9 9 9 9 9 9 10 10 10 10 11 11 12 11 10 9 9 9 9 9 9 10 10
7 8 8 8 8 8 8 8 8 8 8 9 9 9 9 9 9 9 9 10 10 10 10 11 11 11 12 12 11 10 10 9 9 9 10 10 10 10
7 7 8 8 8 8 8 8 8 8 8 8 9 9 9 9 9 9 9 10 10 11 11 11 11 11 11 11 12 11 10 9 9 9 9 10 11 11
7 7 8 8 8 8 7 7 7 8 8 8 8 9 9 9 9 10 10 10 11 11 11 11 11 11 11 12 12 12 11 10 9 9 9 10 10 10
Wind_Speed
12 13 12 11 10 10 9 8 8 7 7 6 5 5 3 3 2 3 5 7 5 3 4 6 8 10 13 15 16 16 16 15 15 16 16 16 16 15
8 11 12 12 11 10 10 9 9 8 5 6 5 5 3 3 5 6 8 9 11 8 8 7 6 7 9 11 13 13 13 13 13 13 14 14 13 13
8 10 12 13 10 10 11 10 10 9 8 6 6 5 4 4 5 6 6 7 10 12 12 12 11 11 10 10 11 10 11 11 11 12 12 12 12 11
10 9 10 9 13 11 10 12 11 10 10 9 7 7 7 7 7 7 6 8 10 14 15 15 15 15 14 13 12 11 11 11 11 11 11 11 11 11
12 11 10 9 9 9 11 11 10 11 11 9 8 7 7 8 8 7 8 8 9 12 15 16 16 16 16 16 15 15 16 16 17 17 18 18 19 19
13 12 12 12 10 7 7 9 9 10 12 10 9 8 8 9 9 8 6 6 7 8 11 13 16 17 17 17 17 18 20 21 22 22 23 23 23 23
14 14 14 13 13 10 7 6 7 8 10 11 10 9 9 10 10 8 8 7 6 5 7 7 8 9 11 14 16 18 20 22 23 23 24 24 25 24
15 14 14 14 15 15 13 10 8 9 9 10 11 11 11 12 11 10 10 9 5 4 6 6 6 7 8 11 15 18 20 22 23 23 24 24 24 24
15 13 13 14 16 14 15 14 12 12 12 11 11 11 12 13 14 14 13 11 7 9 8 7 7 9 10 14 17 19 21 22 22 23 23 24 24 23
14 14 14 12 13 14 13 13 12 11 12 12 12 11 10 12 15 14 13 10 11 7 5 7 8 9 10 13 16 18 21 22 23 23 24 24 24 23
14 14 14 14 11 11 11 11 11 10 11 14 13 10 8 9 13 13 14 14 10 5 3 6 9 10 10 10 13 16 19 21 22 23 24 25 25 21
12 12 12 12 11 14 12 11 11 10 9 11 12 11 9 11 17 17 16 15 11 6 5 7 11 9 7 8 10 13 15 16 18 19 20 19 14 9
9 10 10 14 13 14 11 10 9 8 9 11 11 11 11 11 15 14 14 15 15 7 11 9 11 7 7 9 8 10 13 13 13 11 10 5 4 2
9 8 6 15 14 13 11 8 6 7 9 10 11 11 11 11 11 11 10 9 7 10 14 11 9 9 11 11 9 10 11 13 12 11 10 7 3 7
7 2 6 12 12 11 11 9 9 9 10 11 12 11 11 12 12 10 10 10 10 13 15 12 10 9 10 10 11 11 10 11 11 10 10 10 8 8
9 7 10 11 10 7 9 10 9 9 10 11 11 10 10 12 12 12 13 12 11 9 9 13 12 13 10 11 12 12 11 11 12 11 11 9 10 9
9 9 9 10 10 10 10 9 8 8 9 10 10 10 12 12 13 13 14 13 11 13 13 12 13 12 10 11 12 13 12 11 11 11 10 10 9 9
7 9 10 10 10 10 9 8 8 8 8 9 10 11 13 14 14 14 14 15 15 15 15 15 14 12 11 9 9 12 11 11 12 12 10 10 10 10
9 9 9 9 9 8 7 7 7 7 7 7 9 12 14 15 16 16 15 15 14 15 16 16 15 15 14 13 9 8 10 11 12 12 11 9 8 9
10 9 8 8 8 7 6 6 6 5 6 7 9 12 15 16 17 17 16 16 16 16 16 16 15 14 12 11 11 11 10 11 11 11 11 10 6 5
8 7 6 7 7 6 5 5 5 5 6 7 10 12 14 16 17 17 16 18 17 17 17 16 14 12 8 7 11 12 12 8 3 7 10 10 10 9
6 6 6 6 6 6 5 5 5 5 7 7 9 12 13 15 17 18 17 17 16 16 16 14 14 12 9 9 10 12 12 12 7 1 3 4 6 8
5 5 5 5 5 5 5 5 5 5 7 9 10 12 14 14 15 15 16 15 14 14 14 14 14 12 11 10 9 10 14 13 12 11 11 12 9 4
Wind_Direction
248 238 236 236 231 229 227 225 232 229 198 171 178 149 147 107 64 68 71 66 72 115 175 199 208 209 207 205 203 201 200 202 205 208 208 209 209 210
261 260 245 241 233 227 224 221 225 241 233 167 174 152 128 127 98 87 85 86 70 80 95 113 134 162 179 185 186 188 191 192 196 200 201 204 208 207
248 253 251 250 243 231 224 220 217 221 226 201 178 163 167 155 126 105 89 81 76 74 84 93 102 111 124 141 152 162 173 181 187 192 195 195 194 192
235 240 250 250 247 242 232 222 216 215 220 215 194 183 175 158 132 117 102 87 82 74 79 84 90 95 102 110 118 127 136 143 146 148 147 146 145 137
233 229 232 237 254 250 242 232 221 214 219 219 206 182 167 152 136 120 108 100 91 87 82 82 85 89 93 99 105 109 112 113 111 109 108 106 105 105
232 230 227 219 226 245 257 250 238 222 213 217 209 189 172 166 158 149 135 118 103 91 85 88 89 87 89 94 100 104 105 105 104 103 101 100 98 97
233 229 225 216 209 209 226 251 261 242 219 212 209 199 182 173 176 170 148 129 103 115 113 111 110 105 100 97 99 104 105 105 104 103 101 100 98 97
235 232 224 208 206 203 206 215 238 252 237 220 213 208 195 186 180 168 155 155 137 140 123 114 116 110 106 100 105 108 109 108 106 104 103 102 100 99
231 230 229 212 196 203 201 205 218 237 252 253 237 225 205 190 180 176 177 173 146 149 132 115 112 102 98 100 107 110 111 110 109 108 106 105 104 102
227 225 226 222 201 198 198 201 210 218 229 243 250 249 237 198 184 179 159 126 116 123 123 117 115 107 104 109 108 111 113 113 113 112 110 109 107 103
226 223 220 220 195 186 208 210 212 217 219 228 242 258 277 203 173 159 150 144 138 138 129 120 126 115 110 115 114 112 116 118 120 120 121 121 120 112
222 223 220 223 187 181 213 221 221 219 215 214 223 230 225 182 167 172 169 162 149 146 166 138 144 131 120 131 139 138 128 123 127 132 136 141 148 129
225 220 214 182 181 188 216 230 232 229 221 219 215 211 204 188 182 182 179 173 164 155 163 152 158 148 133 146 155 160 154 152 149 150 159 161 18 52
237 232 204 165 178 190 209 223 221 230 229 221 215 203 193 184 180 175 168 162 154 151 156 152 154 153 143 148 156 167 168 169 170 169 168 163 121 69
241 205 146 161 177 195 212 210 214 226 227 221 215 203 186 171 160 144 123 105 101 128 142 138 137 145 149 153 157 166 172 177 181 178 173 177 175 165
230 192 172 182 214 225 198 204 221 225 225 224 214 192 166 157 155 150 143 134 126 127 139 148 152 157 164 161 161 169 173 175 180 181 180 182 185 185
208 204 204 200 207 213 218 218 219 219 221 223 207 180 164 158 155 153 151 149 148 154 160 168 169 177 175 167 168 170 173 174 177 175 184 187 188 190
209 210 210 211 213 215 218 217 218 219 217 216 202 175 164 159 155 156 158 157 157 158 162 166 166 168 169 167 168 171 173 175 172 173 193 195 191 191
217 221 217 216 218 220 220 220 222 218 209 205 193 171 163 159 157 158 160 160 160 161 163 164 169 171 172 167 170 199 179 170 170 177 196 205 202 187
222 221 216 218 220 223 219 216 223 214 201 195 183 169 163 159 159 160 162 162 162 162 163 168 175 179 182 171 165 177 195 178 178 184 189 202 188 108
215 222 221 221 222 219 217 216 218 208 192 185 175 165 162 159 159 160 161 162 163 165 168 172 173 179 176 157 160 167 179 178 165 191 191 193 194 193
216 224 228 228 222 213 206 207 203 196 180 178 170 161 159 158 157 157 159 162 166 168 169 163 163 177 178 176 174 165 170 174 172 165 262 241 216 209
215 226 227 225 216 199 194 194 190 184 172 167 162 155 155 154 154 155 159 163 166 168 164 161 168 180 183 185 185 171 169 177 189 196 213 222 229 198
Height
1466 1468 1470 1474 1475 1477 1479 1481 1483 1482 1483 1484 1485 1484 1485 1485 1486 1488 1489 1491 1493 1494 1497 1499 1501 1504 1507 1510 1512 1515 1517 1519 1521 1523 1525 1527 1529 1531
1458 1461 1464 1467 1470 1472 1474 1475 1477 1479 1480 1481 1482 1483 1483 1484 1484 1485 1486 1488 1489 1491 1493 1495 1498 1500 1503 1506 1508 1511 1513 1515 1517 1518 1520 1521 1523 1524
1451 1453 1455 1459 1463 1466 1468 1470 1472 1474 1477 1478 1479 1480 1480 1481 1482 1483 1483 1484 1486 1487 1489 1492 1494 1497 1500 1502 1505 1508 1510 1512 1513 1515 1516 1518 1519 1520
1446 1447 1447 1450 1454 1458 1461 1464 1466 1469 1472 1474 1476 1477 1477 1479 1479 1480 1481 1482 1483 1484 1487 1489 1492 1494 1497 1500 1502 1505 1507 1509 1511 1512 1514 1515 1517 1518
1440 1441 1442 1443 1445 1449 1453 1457 1460 1463 1466 1470 1471 1473 1475 1476 1476 1478 1479 1480 1481 1483 1485 1487 1490 1492 1495 1498 1500 1503 1505 1507 1509 1511 1512 1514 1515 1517
1434 1435 1437 1437 1439 1440 1444 1448 1453 1457 1461 1464 1467 1469 1470 1472 1473 1475 1477 1479 1480 1482 1484 1486 1489 1491 1494 1497 1499 1502 1505 1507 1509 1511 1513 1514 1515 1517
1428 1429 1431 1432 1433 1435 1437 1440 1445 1450 1454 1458 1461 1464 1466 1467 1470 1472 1474 1477 1479 1481 1484 1486 1489 1491 1494 1496 1499 1502 1505 1508 1510 1512 1513 1515 1516 1517
1421 1423 1425 1426 1427 1429 1432 1434 1438 1442 1447 1452 1455 1458 1460 1463 1466 1469 1471 1474 1477 1480 1483 1486 1489 1492 1494 1496 1500 1503 1506 1508 1510 1513 1514 1516 1517 1519
1414 1416 1419 1420 1422 1425 1426 1429 1433 1436 1440 1445 1449 1453 1456 1458 1461 1464 1468 1472 1474 1477 1482 1485 1489 1491 1494 1497 1500 1504 1507 1509 1511 1514 1516 1517 1519 1520
1407 1410 1413 1415 1418 1420 1422 1425 1428 1430 1433 1438 1442 1447 1452 1455 1457 1461 1465 1468 1472 1477 1481 1484 1488 1491 1495 1498 1502 1505 1508 1511 1513 1515 1517 1518 1520 1521
1401 1404 1406 1410 1412 1415 1418 1421 1423 1425 1428 1432 1437 1441 1446 1450 1453 1457 1460 1464 1468 1473 1478 1481 1486 1491 1496 1499 1503 1506 1509 1512 1514 1516 1518 1520 1521 1522
1395 1397 1400 1404 1407 1410 1414 1416 1418 1420 1423 1427 1431 1435 1440 1444 1448 1451 1455 1459 1463 1469 1474 1479 1484 1488 1496 1501 1503 1507 1510 1513 1515 1517 1519 1520 1522 1524
1389 1392 1395 1398 1401 1405 1408 1411 1413 1416 1419 1421 1425 1429 1434 1438 1442 1447 1451 1455 1459 1463 1469 1475 1481 1486 1490 1498 1503 1507 1510 1512 1515 1517 1519 1521 1523 1525
1385 1387 1390 1393 1396 1399 1403 1405 1408 1411 1413 1416 1419 1422 1427 1431 1436 1442 1447 1451 1456 1461 1465 1471 1476 1483 1488 1494 1500 1505 1510 1513 1515 1518 1520 1522 1523 1525
1381 1383 1385 1388 1391 1394 1397 1400 1402 1404 1407 1409 1412 1416 1421 1426 1432 1437 1442 1447 1453 1458 1463 1469 1475 1481 1488 1492 1497 1502 1507 1512 1515 1518 1520 1522 1524 1525
1376 1378 1380 1383 1386 1389 1392 1393 1395 1398 1400 1403 1407 1411 1415 1421 1426 1432 1437 1443 1449 1455 1463 1469 1476 1482 1488 1493 1496 1501 1505 1509 1513 1517 1520 1522 1524 1527
1372 1374 1376 1379 1381 1384 1386 1388 1389 1391 1393 1397 1401 1405 1409 1415 1422 1428 1434 1440 1446 1453 1461 1470 1477 1484 1489 1493 1496 1500 1504 1507 1511 1514 1518 1521 1523 1525
1368 1370 1372 1374 1377 1379 1381 1382 1384 1385 1387 1390 1394 1398 1404 1410 1417 1424 1431 1437 1445 1452 1460 1468 1475 1482 1488 1493 1495 1498 1502 1505 1509 1511 1515 1519 1522 1523
1365 1367 1369 1371 1372 1374 1376 1377 1378 1380 1382 1385 1389 1393 1399 1406 1413 1420 1428 1436 1444 1452 1459 1466 1472 1478 1483 1487 1492 1496 1500 1503 1506 1509 1513 1517 1520 1522
1362 1364 1366 1367 1369 1370 1371 1372 1374 1375 1377 1380 1384 1389 1395 1402 1409 1417 1425 1434 1442 1450 1458 1465 1471 1476 1480 1484 1488 1493 1497 1501 1504 1507 1511 1514 1517 1518
1359 1361 1363 1364 1365 1366 1367 1368 1369 1370 1373 1376 1380 1385 1391 1398 1406 1415 1424 1433 1441 1449 1456 1462 1468 1474 1479 1483 1486 1490 1494 1498 1501 1505 1509 1512 1514 1516
1358 1359 1360 1361 1362 1363 1364 1365 1366 1367 1370 1373 1377 1382 1389 1397 1405 1414 1423 1431 1440 1447 1454 1460 1466 1472 1476 1480 1484 1487 1491 1495 1498 1501 1505 1508 1511 1514
1356 1357 1358 1359 1359 1360 1361 1362 1363 1365 1368 1371 1376 1382 1389 1396 1405 1414 1422 1431 1438 1446 1452 1458 1464 1470 1474 1478 1482 1485 1489 1492 1495 1498 1501 1504 1506 1509